Location: Peebles
(55.6412°N, 3.1714°W)
Time: 05:17:42
(UTC+01:00)

FENGYUN 1C DEB - Pass Details

Date: 08 July 2022
Orbit: 749 x 887 km, 98.1° (Epoch: 14 August)

Event Time Altitude Azimuth Distance (km) Brightness Sun altitude
Rises 03:19:15 0° 13° (NNE) 3,510 ? -7.7°
Reaches altitude 10° 03:21:43 10° 10° (N) 2,562 ? -7.5°
Maximum altitude 03:27:18 56° 294° (WNW) 1,035 ? -7.2°
Drops below altitude 10° 03:32:43 10° 217° (SW) 2,493 ? -6.8°
Enters shadow 03:33:09 - 216° (SW) 2,657 ? -6.7°
